Regional Weather Roundup
Issued by NWS

Home | Current Version | Previous Version | Text Only | Print | Product List | Glossary Off
Versions: 1 2 3 4 5 6 7 8 9 10 11 12 13 14 15 16 17 18 19 20 21 22 23 24 25 26 27 28 29 30 31 32 33 34 35 36 37 38 39 40 41 42 43 44 45 46 47 48 49 50

000
ASUS43 KMPX 302201
RWRMN
WEATHER ROUNDUP FOR MINNESOTA
NATIONAL WEATHER SERVICE TWIN CITIES/CHANHASSEN MN
500 PM CDT SUN AUG 30 2015


NOTE: "FAIR" INDICATES FEW OR NO CLOUDS BELOW 12,000 FEET WITH NO
SIGNIFICANT WEATHER AND/OR OBSTRUCTIONS TO VISIBILITY. N/A MEANS
CURRENT SKY AND/OR WEATHER CONDITIONS ARE NOT AVAILABLE.

MNZ060>063-068>070-302300-
   Twin Cities Metro

CITY           SKY/WX    TMP DP  RH WIND       PRES   REMARKS
TWIN CITIES    MOSUNNY   80  64  58 S14       29.93F
ST PAUL        SUNNY     79  67  66 S10       29.93F
CRYSTAL        SUNNY     82  64  54 S12       29.91F
LAKEVILLE      SUNNY     77  66  69 S12       29.95S
EDEN PRAIRIE   SUNNY     80  66  62 S13       29.92F
SOUTH ST PAUL  SUNNY     80  64  58 S9        29.93F
LAKE ELMO      FAIR      79  68  69 S10       29.94F
$$
MNZ001>005-007-008-013>017-022>024-027-028-302300-
   Northwest Minnesota

CITY           SKY/WX    TMP DP  RH WIND       PRES   REMARKS
BEMIDJI        MOSUNNY   82  69  64 S12       29.80F
HALLOCK        MOSUNNY   86  66  51 S20G25    29.66S
ROSEAU         MOSUNNY   88  73  62 S12       29.71F HX  96
WARROAD        MOSUNNY   86  73  66 S10       29.73S HX  93
THIEF RVR FALL MOSUNNY  N/A N/A N/A S14       29.72F
CROOKSTON      SUNNY     86  66  51 S20G25    29.72S
FOSSTON        SUNNY     88  64  45 S9        29.77F
DETROIT LAKES  SUNNY     82  66  57 S16       29.82S
MOORHEAD       MOSUNNY   86  68  54 S14G24    29.75F
PARK RAPIDS    SUNNY     84  66  54 S15       29.83F
MAHNOMEN       FAIR      85  66  53 S9G17     29.78S
$$
MNZ006-009>011-018-025>026-302300-
   North Central Minnesota

CITY           SKY/WX    TMP DP  RH WIND       PRES   REMARKS
BAUDETTE       PTSUNNY   83  68  60 S10       29.75F
FLAG ISLAND    PTSUNNY   77  68  73 SE12      29.73S
INTL FALLS     MOSUNNY   83  69  62 S6        29.79F
WASKISH        MOSUNNY   82  72  69 SE6       29.78F
BIG FORK       MOSUNNY   82  70  65 S8        29.83S
LONGVILLE      MOSUNNY   79  66  65 S10       29.85S
GRAND RAPIDS     N/A     79  66  65 S15       29.86S
CRANE LAKE     MOSUNNY   81  70  69 S5        29.83F
ORR            MOSUNNY   82  64  54 S7        29.81F
COOK           MOSUNNY   81  66  61 S7        29.85S
WALKER         FAIR      81  69  66 S10       29.83S
$$
MNZ012-019>021-037-302300-
   Northeast Minnesota

CITY           SKY/WX    TMP DP  RH WIND       PRES   REMARKS
DULUTH         SUNNY     80  67  64 SW10      29.89S
ELY            MOSUNNY   81  66  61 SW5       29.86S
HIBBING        MOSUNNY   83  67  58 VRB6      29.85F
EVELETH        MOSUNNY   81  68  65 S5        29.88S
DULUTH HARBOR  SUNNY     82  68  61 SW15G21   29.85F
TWO HARBORS    SUNNY     82  72  69 S10       29.85S
SILVER BAY     SUNNY     81  68  65 S8        29.84F
GRAND MARAIS     N/A     59  55  87 W6        29.84S
G MARAIS ARPRT SUNNY     75  64  69 SW3       29.90R
$$
MNZ029>031-032-039>041-046>048-054>057-064-302300-
   West Central Minnesota

CITY           SKY/WX    TMP DP  RH WIND       PRES   REMARKS
FERGUS FALLS   MOSUNNY   82  68  61 S17       29.80S
WHEATON        SUNNY     81  68  65 SE17      29.81F
MORRIS         SUNNY     82  70  65 S14       29.83F
ALEXANDRIA     SUNNY     80  68  66 S14       29.88F
ELBOW LAKE     FAIR      80  69  69 S18       29.83F
WADENA         SUNNY     81  66  61 S12       29.85S
GLENWOOD       SUNNY     82  68  61 S15       29.89S
APPLETON       SUNNY     82  68  61 S9        29.84S
BENSON         SUNNY     81  66  61 SW13G18   29.86S
ORTONVILLE     SUNNY     84  66  54 S12       29.82F
MADISON        SUNNY     82  66  57 S12       29.84F
WILLMAR        FAIR      82  66  57 S6        29.90S
$$
MNZ033>034-036-042>043-049>051-058-059-302300-
   Central Minnesota

CITY           SKY/WX    TMP DP  RH WIND       PRES   REMARKS
ST CLOUD       SUNNY     79  66  64 S12       29.89F
SAUK CENTRE    FAIR      80  68  66 S13       29.89S
PAYNESVILLE    MOSUNNY   80  66  62 SE9       29.90S
AITKIN         MOSUNNY   79  68  69 S12       29.87S
PINE RIVER     SUNNY     79  68  69 S10       29.89F
BRAINERD       SUNNY     79  67  66 S12       29.88S
STAPLES        SUNNY     81  66  61 S12G17    29.86F
LONG PRAIRIE   FAIR      79  68  69 SE13      29.89S
LITTLE FALLS   MOSUNNY   79  64  61 S8        29.89S
LITCHFIELD     SUNNY     81  70  69 S3        29.91F
BUFFALO        SUNNY     79  64  59 SE9       29.92F
MAPLE LAKE     SUNNY     79  68  69 S9        29.92S
$$
MNZ037-044-045-052-053-302300-
   East Central Minnesota

CITY           SKY/WX    TMP DP  RH WIND       PRES   REMARKS
PRINCETON      SUNNY     81  66  61 S8        29.91S
MORA           SUNNY     77  63  61 S9        29.92S
CAMBRIDGE      SUNNY     82  64  54 S10       29.89F
RUSH CITY      SUNNY     79  65  63 S6        29.91S
MOOSE LAKE     SUNNY     79  64  61 S9        29.87F
HINCKLEY       FAIR      79  66  65 S9        29.91S
CLOQUET        SUNNY     79  64  61 S10       29.89S
MCGREGOR       SUNNY     79  66  65 S9        29.88F
$$
MNZ071>073-080-081-089-090-097-098-302300-
   Southwest Minnesota

CITY           SKY/WX    TMP DP  RH WIND       PRES   REMARKS
MONTEVIDEO     SUNNY     84  70  61 SW13G18   29.88F
GRANITE FALLS  SUNNY     81  68  65 S13G18    29.90S
CANBY          SUNNY     82  66  57 S7        29.87F
MARSHALL       SUNNY     81  64  57 S14G20    29.91S
REDWOOD FALLS  SUNNY     81  65  58 S13       29.90S
OLIVIA         SUNNY     79  61  53 S10       29.89F
PIPESTONE      SUNNY     75  64  69 S10       29.93F
WINDOM         SUNNY     79  66  65 S9        29.95S
WORTHINGTON    SUNNY     75  64  69 S14       29.95F
JACKSON        SUNNY     77  66  69 S13       29.97S
TRACY          SUNNY     80  68  66 S12       29.91F
SLAYTON        SUNNY     77  64  63 S12G18    29.95S
$$
MNZ065>067-074>077-082>085-091>093-302300-
   South Central Minnesota

CITY           SKY/WX    TMP DP  RH WIND       PRES   REMARKS
MANKATO        SUNNY     75  66  73 S12G17    29.95S
NEW ULM        SUNNY     79  66  65 S14       29.92F
ST JAMES       SUNNY     79  70  73 S12G21    29.94F
FAIRMONT       SUNNY     75  63  64 S16       29.96
GLENCOE        SUNNY     80  69  68 S9        29.92F
FARIBAULT      SUNNY     77  66  69 S9        29.96F
OWATONNA       SUNNY     75  64  69 S14       29.97F
WASECA         SUNNY     77  68  73 S12G18    29.98F
ALBERT LEA     SUNNY     75  66  73 S9G16     29.99F
$$
MNZ078>079-086>088-094>096-302300-
   Southeast Minnesota

CITY           SKY/WX    TMP DP  RH WIND       PRES   REMARKS
ROCHESTER      MOSUNNY   73  65  75 S13       30.00F
RED WING       SUNNY     79  64  61 S8        29.95S
STANTON        SUNNY     78  65  65 S9        29.94F
DODGE CENTER   SUNNY     73  64  73 S14       29.99F
WINONA         MOSUNNY   75  63  64 S7        29.99F
PRESTON        MOSUNNY   72  63  74 S9        30.02F
$$
ABBREVIATIONS USED IN REMARKS
   TC - TEMPERATURES IN CELSIUS
  WCI - WIND CHILL INDEX
   HX - HEAT INDEX
  VSB - VISIBILITY
$$


USA.gov is the U.S. government's official web portal to all federal, state and local government web resources and services.